AirNav   Air Wisconsin pilot careers
 
 481 users online  

C48 Wilson Bar USFS Airport
Dixie, Idaho, USA

GOING TO DIXIE?


FAA INFORMATION EFFECTIVE 19 JULY 2018

Location

FAA Identifier: C48
Lat/Long: 45-23-48.0000N / 115-29-00.0000W
45-23.800000N / 115-29.000000W
45.3966667 / -115.4833333
(estimated)
Elevation: 2275 ft. / 693 m (estimated)
Variation: 17E (1995)
From city: 8 miles S of DIXIE, ID
Time zone: UTC -6 (UTC -7 during Standard Time)
Zip code: 83677

Airport Operations

Airport use: Open to the public
Activation date: 05/1996
Control tower: no
ARTCC: SEATTLE CENTER
FSS: BOISE FLIGHT SERVICE STATION
NOTAMs facility: BOI (NOTAM-D service available)
Attendance: UNATNDD
Wind indicator: yes
Segmented circle: no

Airport Communications

CTAF: 122.9

Airport Services

Runway Information

Runway 6/24

Dimensions: 1500 x 50 ft. / 457 x 15 m
Surface: turf/dirt, in fair condition
Runway edge markings: THLD RWY 24 MKD WITH WHITE PAINTED ROCKS.
RUNWAY 6  RUNWAY 24
Traffic pattern: leftleft
Obstructions: 12 ft. brush, 60 ft. left of centerline75 ft. trees, 5 ft. from runway, 70 ft. right of centerline

Airport Ownership and Management from official FAA records

Ownership: Publicly-owned
Owner: NEZ PERCE NATIONAL FOREST
104 AIRPORT RD
GRANGEVILLE, ID 83530
Phone 208-983-1950
Manager: SALMON RIVER RANGER DISTRICT
304 SLATE CREEK ROAD
WHITE BIRD, ID 83554-9706
Phone 208-839-2211
WILLIE ACTON GRANGEVILLE AIR CENTER @ 208-983-9571

Airport Operational Statistics

Aircraft operations: avg 20/month *
83% transient general aviation
17% air taxi
* for 12-month period ending 22 April 2016

Additional Remarks

DOWNDRAFTS PREVALENT ON APCH TO RY 24.
BIG GAME ANIMALS ON & INVOF ARPT.
NO WINTER MAINTENANCE.
LAND RY 24 - DEPART RY 06 - NO GO AROUND POSSIBLE.
RECOMMEND FOR USE BY MOUNTAIN PROFICIENT PILOTS USING HIGH PERFORMANCE ACFT.
MACKAY BAR PRIVATE ARPT 2 MILES DOWNRIVER.

Instrument Procedures

There are no published instrument procedures at C48.

Some nearby airports with instrument procedures:

KMYL - Mc Call Municipal Airport (40 nm SW)
KGIC - Idaho County Airport (42 nm NW)
KSMN - Lemhi County Airport (70 nm E)
6S5 - Ravalli County Airport (77 nm NE)
KLWS - Lewiston-Nez Perce County Airport (87 nm NW)
 
Loc | Ops | Rwys | IFR | FBO | Links
Com | Nav | Svcs | Stats | Notes


 
Area around C48 (Wilson Bar USFS Airport)
 
Road maps at: MapQuest Bing Google
 
Aerial photo
WARNING: Photo may not be current or correct
Aerial photo of C48 (Wilson Bar USFS Airport)
Do you have a better or more recent aerial photo of Wilson Bar USFS Airport that you would like to share? If so, please send us your photo.

 
Sectional chart

 
Airport distance calculator
Flying to Wilson Bar USFS Airport? Find the distance to fly.

From to C48

Sunrise and sunset
Times for 14-Aug-2018
 Local
(UTC-6)
 Zulu
(UTC)
Morning civil twilight06:1012:10
Sunrise06:4312:43
Sunset20:5002:50
Evening civil twilight21:2303:23

Current date and time
Zulu (UTC)  14-Aug-2018 07:00:16
Local (UTC-6)  14-Aug-2018 01:00:16
 
METAR
KMYL 
40nm SW 
140651Z AUTO 36006KT 10SM CLR 17/03 A3009 RMK AO2 SLP139 T01720033 402890067 $
KGIC 
42nm NW 
140635Z AUTO 00000KT 7SM 13/04 A3005 RMK AO1
KP69 
45nm N 
140652Z AUTO 00000KT 15/07 A3003 RMK AO1 SLP148 T01500072
TAF
KMYL 
40nm SW 
140520Z 1406/1506 VRB05KT P6SM SKC
NOTAMs
Click for the latest NOTAMs
NOTAMs are issued by the DoD/FAA and will open in a separate window not controlled by AirNav.

 

 
 

Would you like to see your business listed on this page?

 If your business provides an interesting product or service to pilots, flight crews, aircraft, or users of the Wilson Bar USFS Airport, you should consider listing it here.  To start the listing process, click on the button below
 
Add a business
 

Other Pages about Wilson Bar USFS Airport

Update a link
 
Copyright © AirNav, LLC. All rights reserved. Privacy Policy  Contact